#timestamp,LO_Frequency,Hit,StdDev 
1456657215.7,286047001.9,N
1456657235.5,286047002.2,N
1456657255.3,286047001.3,N
1456657275.2,286047003.8,N
1456657295.9,286047000.6,N
1456657315.7,286047002.8,N
1456657335.6,286046998.8,N
1456657355.4,286047001.0,N
1456657375.2,286046998.6,N
1456657395.0,286046997.9,N
1456657396.0,286046997.9,N
1456657415.8,286046997.0,N
1456657435.6,286046998.8,N
1456657455.4,286046996.9,N
1456657475.3,286046999.1,N
1456657495.1,286046999.5,N
1456657515.8,286047000.9,N
1456657535.7,286046998.5,N
1456657555.5,286046997.9,N
1456657575.3,286046992.3,N
1456657595.2,286046992.0,N
1456657615.9,286046994.8,N
1456657635.7,286046990.9,N
1456657655.6,286046990.0,N
1456657675.4,286046989.2,N
1456657695.2,286046990.4,N
1456657715.0,286046989.2,N
1456657715.9,286046989.2,N
1456657735.8,286046989.9,N
1456657755.6,286046987.8,N
1456657775.8,286046985.9,N
1456657795.6,286046983.9,Y
1456657815.4,286046991.5,P
1456657835.3,286046991.3,P
1456657855.1,286046992.7,P
1456657856.0,286046992.7,Y
1456657875.8,286047000.4,P
1456657895.7,286047004.5,N
1456657915.5,286047009.5,N
1456657935.3,286047012.1,N
1456657955.2,286047014.4,N
1456657975.9,286047014.1,N
1456657995.7,286047016.6,N
1456658015.6,286047017.6,N
1456658035.4,286047019.6,N
1456658055.2,286047017.3,N
1456658075.0,286047021.1,N
1456658075.9,286047021.1,N
1456658095.8,286047024.2,N
1456658115.6,286047022.6,N
1456658135.4,286047026.6,Y
1456658155.3,286047012.5,P
1456658175.1,286047011.6,P
1456658195.8,286047010.9,P
1456658215.7,286047015.6,Y
1456658235.5,286047004.4,P
1456658255.3,286047001.4,N
1456658275.2,286046999.0,N
1456658295.9,286047000.7,N
1456658315.7,286046998.4,N
1456658335.6,286046996.8,N
1456658355.4,286046999.3,N
1456658375.2,286046995.9,N
1456658395.1,286046993.5,N
1456658396.0,286046993.5,N
1456658415.8,286046994.6,N
1456658435.6,286046993.6,N
1456658455.5,286046994.5,N
1456658475.3,286046994.6,N
1456658495.1,286046994.5,N
1456658515.8,286046991.8,N
1456658535.7,286046991.7,N
1456658555.5,286046992.7,N
1456658575.3,286046991.4,N
1456658595.2,286046990.9,N
1456658615.9,286046992.1,N
1456658635.7,286046991.8,N
1456658655.6,286046990.5,N
1456658675.4,286046993.1,N
1456658695.2,286046992.6,N
1456658715.1,286046993.0,N
1456658716.0,286046993.0,N
1456658735.8,286046993.0,N
1456658755.6,286046991.5,N
1456658775.5,286046989.1,N
1456658795.3,286046989.7,N
1456658815.1,286046987.8,Y
1456658835.9,286046988.6,P
1456658855.7,286046990.7,P
1456658875.5,286046994.7,N
1456658895.4,286046993.2,N
1456658915.2,286046989.3,Y
1456658935.0,286046995.2,P
1456658935.9,286046995.2,P
1456658955.8,286046998.7,N
1456658975.6,286046998.5,N
1456658995.4,286046997.0,N
1456659015.3,286046997.3,N
1456659035.1,286046995.7,N
1456659036.0,286046995.7,N
1456659055.8,286046993.8,Y
1456659075.7,286046999.1,P
1456659095.5,286046998.2,N
1456659115.3,286047002.3,N
1456659135.2,286046999.8,N
1456659155.9,286047000.0,N
1456659175.7,286047002.8,N
1456659195.5,286047000.0,N
1456659215.4,286046995.7,N
1456659235.2,286046995.7,N
1456659255.0,286046997.4,N
1456659255.9,286046997.4,N
1456659275.8,286046995.7,N
1456659295.6,286046995.4,N
1456659315.4,286046997.9,N
1456659335.3,286046994.9,N
1456659355.1,286046998.1,N
1456659375.8,286046997.2,N
1456659395.7,286046997.3,N
1456659415.5,286046995.6,N
1456659435.3,286046995.6,N
1456659455.2,286046992.2,Y
1456659475.9,286046995.9,P
1456659495.7,286046996.6,P
1456659515.6,286046996.6,P
1456659535.4,286047000.3,N
1456659555.2,286047003.1,N
1456659575.1,286047005.5,N
1456659576.0,286047005.5,N
1456659595.8,286047006.4,N
1456659615.6,286047005.9,N
1456659635.4,286047004.6,N
1456659655.3,286047006.5,N
1456659675.1,286047007.7,N
1456659695.8,286047008.2,N
1456659715.7,286047010.7,N
1456659735.5,286047013.8,N
1456659755.3,286047011.2,N
1456659775.2,286047012.4,N
1456659795.9,286047013.5,N
1456659815.7,286047013.2,N
1456659835.6,286047013.1,N
1456659855.4,286047015.6,N
1456659875.2,286047015.1,N
1456659895.0,286047013.3,N
1456659896.0,286047013.3,N
1456659915.8,286047014.1,N
1456659935.6,286047014.4,N
1456659955.4,286047016.5,N
1456659975.3,286047016.6,N
1456659995.1,286047014.8,N
1456660015.8,286047018.2,N
1456660035.7,286047018.1,N
1456660055.5,286047014.6,N
1456660075.3,286047014.7,N
1456660095.2,286047017.1,Y
1456660115.9,286047005.6,P
1456660135.7,286047008.6,N
1456660155.6,286047011.4,P
1456660175.4,286047012.8,Y
1456660195.2,286047001.3,P
1456660215.1,286047002.6,N
1456660216.0,286047002.6,N
1456660235.8,286047001.9,N
1456660255.6,286047000.7,N
1456660275.5,286046998.8,N
1456660295.3,286046999.4,N
1456660315.1,286047001.1,N
1456660335.9,286046999.7,N
1456660355.7,286047001.3,N
1456660375.5,286047002.1,N
1456660395.3,286047005.8,N
1456660415.2,286047006.2,N
1456660435.0,286047006.1,N
1456660435.9,286047006.1,N
1456660455.8,286047010.8,Y
1456660475.6,286047006.6,P
1456660495.4,286047006.8,P
1456660515.2,286047008.3,P
1456660535.1,286047013.3,Y
1456660536.0,286047013.3,P
1456660555.8,286047008.3,N
1456660575.7,286047006.9,N
1456660595.5,286047006.1,N
1456660615.3,286047006.6,N
1456660635.2,286047009.0,Y
1456660655.9,286047001.0,P
1456660675.7,286046996.9,N
1456660695.6,286046996.9,N
1456660715.4,286046993.6,N
1456660735.2,286046993.7,N
1456660755.0,286046996.1,N
1456660755.9,286046996.1,N
1456660775.8,286046995.9,N
1456660795.6,286046995.8,N
